User: anonymous   Login
Location: Unspecified
(0.0000°N, 0.0000°E)
Time: 01:15:11
(UTC+00:00)
Language:

Cosmos 1660 - Orbit

View from above orbital plane
View from above orbital plane
View from above satellite
View from above satellite

Ground track
Ground track

The orbit data is extracted from the following two-line orbital elements,

1 15821U 85047A   18202.79331576 -.00000037  00000-0 -14291-3 0  9997
2 15821  73.6255  89.8252 0027695 244.5269 182.0368 12.40772484499562
Epoch (UTC): 21 July 2018 19:02:22
Eccentricity: 0.0027695
inclination: 73.6255°
perigee height: 1481 km
apogee height: 1525 km
right ascension of ascending node: 89.8252°
argument of perigee: 244.5269°
revolutions per day: 12.40772484
mean anomaly at epoch: 182.0368°
orbit number at epoch: 49956

The dashed part of the orbit path shows where the satellite is in the earth's shadow,  

DLR